Tracking 28794 objects as of 19-Apr-2024
HD Live streaming from Space Station
objects crossing your sky now

FENGYUN 1C DEB

Track FENGYUN 1C DEB now!
10-day predictions


NORAD ID: 31966
Int'l Code: 1999-025CNT
Perigee: 644.2 km
Apogee: 794.4 km
Inclination: 99.0 °
Period: 99.0 minutes
Semi major axis: 7090 km
RCS: 0.0117 m2 (small)
Launch date: May 10, 1999
Source: People's Republic of China (PRC)
Launch site: Taiyaun Space Center, China (TSC)

Note: This is SATELLITE DEBRIS
Your satellite tracking list
Your tracking list is empty




NASA's NSSDC Master Catalog

Two Line Element Set (TLE):
1 31966U 99025CNT 24109.21266424  .00009667  00000-0  21324-2 0  9995
2 31966  98.9740 203.5811 0105914 318.7038  40.6181 14.54131847569282
Source of the keplerian elements: AFSPC